Location: Baix
(44.7118°N, 4.7648°E)
Time: 06:55:31
(UTC+00:00)

Vanguard 1 - Pass Details

Date: 27 November 2020
Orbit: 648 x 3834 km, 34.3° (Epoch: 21 January)

Event Time Altitude Azimuth Distance (km) Brightness Sun altitude
Rises 05:35:31 0° 236° (SW) 3,602 - -13.6°
Exits shadow 05:35:48 - 235° (SW) 3,511 12.5 -13.5°
Reaches altitude 10° 05:37:47 10° 228° (SW) 2,898 12.2 -13.2°
Maximum altitude 05:44:23 40° 160° (SSE) 2,102 12.1 -12.1°
Drops below altitude 10° 05:55:50 10° 98° (E) 5,001 15.2 -10.1°
Sets 06:01:09 0° 92° (E) 6,549 15.9 -9.3°
